User: anonymous   Login
Location: Demmingen
(48.6757°N, 10.4375°E)
Time: 21:56:39
(UTC+00:00)
Language:

YAOGAN 6 - Orbit

View from above orbital plane
View from above orbital plane
View from above satellite
View from above satellite

Ground track
Ground track

The orbit data is extracted from the following two-line orbital elements,

1 34839U 09021A   24197.47546003  .00024999  00000-0  45355-3 0  9999
2 34839  97.1710 164.7777 0019330  78.9440 281.3985 15.49371266847819
Epoch (UTC): 15 July 2024 11:24:39
Eccentricity: 0.0019330
inclination: 97.1710°
perigee height: 405 km
apogee height: 432 km
right ascension of ascending node: 164.7777°
argument of perigee: 78.9440°
revolutions per day: 15.49371266
mean anomaly at epoch: 281.3985°
orbit number at epoch: 84781

The dashed part of the orbit path shows where the satellite is in the earth's shadow,  

DLR